Location: Ellingshausen
(50.5460°N, 10.4723°E)
Time: 13:03:07
(UTC+00:00)

Cosmos 676 Rocket - Pass Details

Date: 13 April 2026
Orbit: 750 x 779 km, 74.0° (Epoch: 19 May)

Event Time Altitude Azimuth Distance (km) Brightness Sun altitude
Rises 00:09:33 0° 334° (NNW) 3,271 7.9 -29.5°
Reaches altitude 10° 00:11:57 10° 333° (NNW) 2,336 7.0 -29.4°
Enters shadow 00:15:58 51° 317° (NW) 967 4.6 -29.2°
